SL-8 DEB, 1634

Orbit data source: Space-Track

SL-8 DEB, 1634 is space debris in LEO originally from a launch on Mon, 15 Mar 1965 UTC launched from the Tyuratam Missile And Space Complex (TTMTR). Debris objects in space refer to the collection of defunct objects orbiting the Earth. Examples of debris include non-operational satellites, rocket bodies, and fragments generated from explosions, collisions, or faulty payload assembly.

Loading next visibility...
Identifier
1634, 1965-020ED
Orbit
LEO
Country
Flag of CISCIS
Related business
Manufacturer
Unknown
Mission
Spacecraft
Bus & Motor
Unknown
Mass
Unknown
Launch date (UTC)
1965-03-15 (61 years ago)
Launch vehicle
Unknown
Launch site
Tyuratam Missile And Space Complex (TTMTR)
Object type
Payload
Rocket body
Debris
Shape & HBR
Unknown shape, 0.1 m
Radar Cross Section
Small (<0.1 m²)

Expand to show TLE details & history
Last TLE update: 9 hours ago

TLE from 9 hours ago
0 SL-8 DEB
1 01634U 65020ED  26120.56270823  .00000054  00000-0  26989-3 0  9997
2 01634  56.1525 193.3620 0852649  16.1908 346.4536 12.48533112756530
Epoch: 2026-04-30T13:30Z
TLE epoch observation values (Epoch: 2026-04-30T13:30:17.991Z)
Latitude
-0.00004°
Longitude
132.27948°
Altitude
824.641 km
Speed
7.742 km/s
True Right ascension
12h 53m 26s
True Declination
0° 00' 00"
Sunlit
Object was in full shadow at epoch
Visualization orbit readout
Latitude
Unknown
Longitude
Unknown
Altitude
Unknown
Speed
Unknown
Apparent Right ascension
Unknown
Apparent Declination
Unknown
Sunlit
N/A
Visualization observer readout
Local Sidereal Time
06:30:09
Azimuth
Unknown
Elevation
Unknown
Doppler factor
Unknown
Orbital elements
Apogee altitude
2,139.653 km
Perigee altitude
801.236 km
Semi-major axis
7,848.582 km
Eccentricity
0.08526
Inclination
56.1525°
RAAN
193.362°
Arg. of periapsis
16.1908°
True anomaly
343.9027°
Mean anomaly
346.4536°
Eccentric anomaly
345.20618°
Mean motion
3.12145 °/min
Orbital period
115.33 mins
BSTAR
0.00026989
Loading maneuver chart data...
Computing Atmospheric mass density...
Loading historical data...
Loading historical data...
Loading historical data...
Loading historical data...
Loading historical data...
Loading historical data...
Loading historical data...

Documentation

Showing up to 5 results
|